Regional Weather Roundup
Issued by NWS Grand Forks, ND

Home | Current Version | Previous Version | Graphics & Text | Print | Product List | Glossary On
Versions: 1 2 3 4 5 6 7 8 9 10 11 12 13 14 15 16 17 18 19 20 21 22 23 24 25 26 27 28 29 30 31 32 33 34 35 36 37 38 39 40 41 42 43 44 45 46 47 48 49 50
000
ASUS43 KFGF 212331
RWRFGF
PRAIRIE TO PINES  WEATHER ROUNDUP
NATIONAL WEATHER SERVICE EASTERN NORTH DAKOTA/GRAND FORKS ND
600 PM CDT SAT OCT 21 2017

 **SATELLITE DATA USED TO AUGMENT SKY COVER AT AUTOMATED STATIONS**
 *****  WEATHER ACROSS EASTERN NORTH DAKOTA  *****

CITY           SKY/WX    TMP DP  RH WIND       PRES   REMARKS
GRAND FORKS    CLOUDY    57  44  62 W14       29.56R
GRAND FRKS AFB CLOUDY    55  42  61 W9        29.56R
DEVILS LAKE    CLOUDY    49  41  74 W15       29.57R
FARGO          CLOUDY    56  44  64 W16       29.61R
WAHPETON ARPT  NOT AVBL
$$

 ***** WEATHER ACROSS CENTRAL AND WESTERN NORTH DAKOTA  *****

CITY           SKY/WX    TMP DP  RH WIND       PRES   REMARKS
BISMARCK       CLOUDY    52  37  56 W20G26    29.72R
MINOT          CLOUDY    50  36  58 W31G40    29.60R
JAMESTOWN      CLOUDY    50  41  71 W16       29.64R
MINOT AFB      CLOUDY    49  35  59 NW31G37   29.58R
GARRISON         N/A     48  36  63 NW36G44   29.65R
WILLISTON      CLOUDY    53  33  46 NW23G31   29.72R
DICKINSON      FAIR      51  27  39 W25G36    29.72R
HETTINGER      MOCLDY    52  26  36 NW23G30   29.80R
$$

 *****  OTHER AIRPORT OBSERVATIONS IN OUR AREA  *****

CITY           SKY/WX    TMP DP  RH WIND       PRES   REMARKS
WALHALLA       FAIR     N/A N/A N/A W8G18     29.49S
GRAFTON AIRPOR MOCLDY    55  45  67 SW13      29.56R
VALLEY CITY AR MOCLDY    48  46  93 W13       29.65R
CANDO          CLOUDY    50  41  71 W18G25    29.57R
CAVALIER APRT  MOCLDY    55  45  67 W9G16     29.50R
GWINNER        CLEAR     50  43  76 W13       29.68R
SHEYENNE NWR     N/A     53  43  69 W15       29.95S
ROLLA          CLOUDY    46  39  76 W13G20    29.54R
 ***** THE ABOVE OBSERVATIONS ARE NON NWS ARE NOT QUALITY
       CONTROLLED AND MAY MIS-REPORT RAIN FOR SNOW...
$$

  *****  WEATHER ACROSS NORTHERN MINNESOTA  *****

CITY           SKY/WX    TMP DP  RH WIND       PRES   REMARKS
FLAG ISLAND    CLOUDY    54  54 100 S12       29.48R FOG
WARROAD        CLOUDY    61  46  59 S8        29.51R
ROSEAU         CLOUDY    63  46  55 SW8       29.49S
HALLOCK        CLOUDY    55  43  62 W10       29.51R
THF RVR FALLS  CLOUDY    54  43  66 W16       29.56R
BAUDETTE       LGT RAIN  56  54  93 SW10G20   29.51R
WASKISH        CLOUDY    54  54 100 SW10      29.55R
CROOKSTON      CLOUDY    55  43  62 W13       29.59R
STEPHEN NDAWN    N/A     55  43  62 SW6         N/A
GREENBUSH NDAW   N/A     55  45  67 W12         N/A
$$
  *****  WEATHER ACROSS CENTRAL AND WEST MINNESOTA  *****

CITY           SKY/WX    TMP DP  RH WIND       PRES   REMARKS
FOSSTON        CLOUDY    54  46  76 W13       29.59R
BEMIDJI        RAIN      51  49  93 W7        29.57R
PARK RAPIDS    CLOUDY    52  49  89 W8        29.60R
ELBOW LAKE     CLOUDY    53  43  69 NW15G23   29.69R
WADENA         LGT RAIN  52  46  82 W9        29.62R
DETROIT LAKES  FAIR      54  46  76 W13G21    29.63R
MOORHEAD       CLOUDY    55  43  62 W15       29.65R
FERGUS FALLS   CLOUDY    54  45  71 W15G21    29.67R
MORRIS MN      MOCLDY    55  43  62 W13       29.70R
STAPLES        LGT RAIN  52  50  93 W8        29.62R
$$
  *****  WEATHER ELSEWHERE ACROSS MINNESOTA  *****

CITY           SKY/WX    TMP DP  RH WIND       PRES   REMARKS
DULUTH         DRIZZLE   60  60 100 S15       29.67S FOG
INTRNTL FALLS  CLOUDY    62  58  86 S9        29.54F
ELY            CLOUDY    61  57  88 S15       29.64S
CLOQUET        DRIZZLE   63  59  88 SE9G17    29.66S
WHEATON        CLOUDY    54  39  58 W12G17    29.70S
BRAINERD       HVY RAIN  61  53  75 W18G29    29.63R
HIBBING        CLOUDY    60  59  96 S12G21    29.60F
ALEXANDRIA     CLOUDY    55  47  74 W13       29.67R
SAINT CLOUD    LGT RAIN  55  54  96 W10G21    29.66R
MINNEAPOLIS    MOCLDY    69  61  75 S17G31    29.66S
$$

  *****  WEATHER ACROSS SOUTH DAKOTA  *****

CITY           SKY/WX    TMP DP  RH WIND       PRES   REMARKS
SIOUX FALLS    FAIR      53  42  66 NW13      29.79R
BROOKINGS      MOCLDY    50  41  71 NW16      29.77R
WATERTOWN      FAIR      49  42  77 W12G22    29.74R
HURON          FAIR      55  37  50 W16G26    29.79R
SISSETON         N/A     53  43  68 NW12      29.70R
ABERDEEN       CLOUDY    53  42  66 W13       29.75R
MITCHELL       FAIR      56  38  50 W14       29.82R
PIERRE         CLOUDY    56  35  45 NW17      29.82R
MOBRIDGE       CLOUDY    55  38  52 NW15G23   29.75R
RAPID CITY     FAIR      54  18  24 NW17G26   29.89R
$$

  *****  SOME WEATHER IN NEARBY STATES *****

CITY           SKY/WX    TMP DP  RH WIND       PRES   REMARKS
GLASGOW MT     FAIR      55  25  31 NW24G30   29.77R
GREAT FALLS MT FAIR      48  18  30 SW24G37   29.87S
CHEYENNE WY    FAIR      44  11  26 W24G36    30.06R
SCOTTSBLUFF NE FAIR      57  13  17 W22G30    29.98R
OMAHA NE       MOCLDY    60  43  53 NW16      29.84R
DES MOINES IA  TSTM      73  62  68 S13G22    29.76R
DAVENPORT IA   MOCLDY    76  60  57 S13       29.90S
CHICAGO IL     MOCLDY    74  58  57 S18       29.99R
EAU CLAIRE WI  CLOUDY    67  58  72 S15       29.75S
LA CROSSE WI   CLOUDY    69  60  73 SE10      29.79S
$$

  *****  SOME NATIONAL WEATHER *****

CITY           SKY/WX    TMP DP  RH WIND       PRES   REMARKS
LA GUARDIA NY  MOCLDY    69  37  30 S9        30.33R
RALEIGH NC     CLOUDY    68  56  65 SE3       30.33R
ATLANTA GA     MOCLDY    72  57  59 E6        30.26R
NEW ORLEANS LA MOCLDY    79  75  87 SE21      30.02R
OKLAHOMA CITY  MOCLDY    75  65  70 SE13      29.79F
ALBUQUERQUE NM FAIR      63   9  12 NW16G25   30.12R
SALT LAKE CITY PTSUNNY   54  19  25 NE6       30.24R
LOS ANGELES CA FAIR      71  46  40 W14       30.03S
BOISE ID       LGT RAIN  45  38  76 SE6       30.17R
SEATTLE WA     LGT RAIN  49  47  93 E10       29.68F FOG
$$

*** WEATHER ACROSS MANITOBA...SASKATCHEWAN AND ONTARIO ***
                ***ONTARIO***

CITY           SKY/WX    TMP DP  RH WIND       PRES   REMARKS
GERALDTON      CLOUDY    55  54  94 S13G21    29.79S
THUNDER BAY    CLOUDY    57  55  94 NE8       29.73R
SIOUX LOOKOUT  LGT RAIN  59  55  88 S10       29.57R
TORONTO        MOCLDY    61  54  77 SE7       30.22R
BIG TROUT LK   MOCLDY    45  45 100 SE8       29.54F
PICKLE LAKE    CLOUDY    63  54  72 S18G25    29.58R
DRYDEN         CLOUDY    63  55  77 S15G22    29.54R
KENORA         LGT RAIN  59  57  94 S10G17    29.49R FOG
$$
                *** MANITOBA***

CITY           SKY/WX    TMP DP  RH WIND       PRES   REMARKS
BRANDON        CLOUDY    48  37  66 W18G24    29.47R
DAUPHIN        CLOUDY    46  37  71 W18G31    29.43S
ISLAND LAKE    CLOUDY    63  55  77 SE13      29.32S
PILOT MOUND      N/A     50  39  66 W9          N/A
THE PAS        DRIZZLE   41  37  87 NW16      29.39R
THOMPSON       CLOUDY    50  43  76 N7        29.29F
WINNIPEG       LGT RAIN  55  41  58 W13G20    29.45R
LYNN LAKE      CLOUDY    36  34  93 N7        29.42R
CHURCHILL      CLOUDY    37  36  93 SE7       29.45R
GILLAM         CLOUDY    52  43  71 E5        29.36S
$$
                ***SASKATCHEWAN***

CITY           SKY/WX    TMP DP  RH WIND       PRES   REMARKS
ESTEVAN        LGT RAIN  46  36  66 W28G37    29.64R
KINDERSLEY     PTCLDY    50  28  43 NW7       29.70R
LLOYDMINSTER   PTCLDY    48  30  49 NW8       29.65R
PRINCE ALBERT  LGT RAIN  41  39  93 NW18      29.58R
REGINA         MOCLDY    45  37  76 NW22G30   29.63R
YORKTON        CLOUDY    41  37  87 NW16      29.49R
N. BATTLEFORD  CLEAR     48  32  53 NW12G17   29.66R
LA RONGE       LGT RAIN  37  37 100 NW15      29.53R
SASKATOON      MOCLDY    46  37  71 NW17G24   29.64R
SWIFT CURRENT  CLEAR     48  28  46 NW18G25   29.71R
$$
NOTE: THESE ARE AUTOMATED STATIONS WITH LIMITED QUALITY CONTROL
      "FAIR" INDICATES FEW OR NO CLOUDS BELOW 12,000 FEET WITH NO
      SIGNIFICANT WEATHER AND/OR OBSTRUCTIONS TO VISIBILITY.
      SKY/WX - SKY CONDITION AND SIGNIFICANT WEATHER.
      TMP - AIR TEMPERATURE.    DP   - DEWPOINT TEMPERATURE.
      RH  - RELATIVE HUMIDITY.  PRES - PRESSURE.
      HX  - HEAT INDEX.         WCI  - WIND CHILL INDEX.
$




USA.gov is the U.S. government's official web portal to all federal, state and local government web resources and services.